Flag for Switzerland Weather past 2 weeks in Liestal, Basel-Land, Switzerland

Now
63 °F

Broken clouds.


Feels Like: 63 °F
Forecast: 45 / 71 °F
Wind: 6 mph from Northwest

Location: Bale-Mulhouse

Current Time: Jul 29, 2015 at 6:12:36 PM

Latest Report: Jul 29, 2015 at 6:00 PM


Visibility: N/A

Pressure: 29.95 "Hg

Humidity: 77%

Dew point: 55 °F

Location of LiestalLocation

Historic Weather in Liestal — Graph

°F

Liestal temperature yesterday

Maximum temperature yesterday: 73 °F (at 5:30 PM)
Minimum temperature yesterday: 61 °F (at 10:30 PM)
Average temperature yesterday: 67 °F

Past Weeks' High & Low Weather Summary

 TemperatureHumidityPressure
High97 °F (Jul 17, 3:00 PM)100% (Jul 26, 5:00 AM)30.15 "Hg (Jul 26, 5:00 AM)
Low46 °F (Jul 26, 6:00 AM)22% (Jul 17, 4:30 PM)29.71 "Hg (Jul 24, 5:30 PM)
Average73 °F63%29.97 "Hg
* Reported Jul 14 5:00 PM — Jul 29 5:00 PM, Liestal, Weather by CustomWeather, © 2015

Note: Actual official high and low records may vary slightly from our data, if they occured in-between our weather recording intervals... More about our weather records

Advertising

Liestal weather history for previous 24 hours

 ConditionsComfort  
Time TempWeatherWind HumidityBarometerVisibility
5:00 PM
Wed, Jul 29
64 °FPartly sunny.12 mph73%29.92 "HgN/A
4:30 PM64 °FPartly sunny.14 mph78%29.92 "HgN/A
4:00 PM64 °FPartly sunny.14 mph78%29.89 "HgN/A
3:30 PM64 °FPartly sunny.12 mph78%29.89 "HgN/A
3:00 PM64 °FBroken clouds.8 mph78%29.89 "HgN/A
2:30 PM64 °FBroken clouds.7 mph83%29.89 "HgN/A
2:00 PM63 °FDrizzle. Partly sunny.6 mph88%29.89 "Hg4 mi
1:30 PM61 °FDrizzle. Fog.6 mph94%29.89 "Hg2 mi
1:00 PM61 °FDrizzle. Fog.2 mph94%29.86 "Hg2 mi
12:30 PM61 °FDrizzle. Fog.5 mph94%29.86 "Hg2 mi
12:00 PM59 °FDrizzle. Fog.2 mph94%29.86 "Hg2 mi
11:30 AM59 °FLight rain. Partly sunny.5 mph94%29.86 "Hg4 mi
11:00 AM59 °FLight rain. Partly sunny.6 mph94%29.86 "Hg4 mi
10:30 AM59 °FLight rain. Broken clouds.7 mph94%29.86 "Hg4 mi
10:00 AM59 °FLight rain. Partly sunny.7 mph88%29.86 "Hg4 mi
9:30 AM61 °FLight rain. Partly sunny.6 mph83%29.86 "Hg4 mi
9:00 AM61 °FLight rain. Partly sunny.6 mph77%29.86 "HgN/A
8:30 AM61 °FLight rain. Partly sunny.6 mph72%29.86 "HgN/A
8:00 AM61 °FLight rain. Partly sunny.5 mph72%29.86 "HgN/A
7:30 AM59 °FLight rain. Broken clouds.6 mph77%29.86 "HgN/A
7:00 AM59 °FPartly cloudy.7 mph77%29.86 "HgN/A
6:30 AM59 °FPassing clouds.5 mph77%29.89 "HgN/A
6:00 AM59 °FPassing clouds.2 mph77%29.89 "HgN/A
5:30 AM59 °FPassing clouds.2 mph77%29.89 "HgN/A
5:00 AM59 °FPassing clouds.3 mph77%29.92 "HgN/A
4:30 AM59 °FPassing clouds.3 mph72%29.92 "HgN/A
4:00 AM59 °FOvercast.3 mph72%29.92 "HgN/A
3:30 AM59 °FMostly cloudy.3 mph77%29.92 "HgN/A
3:00 AM59 °FMostly cloudy.3 mph72%29.92 "HgN/A
2:30 AM59 °FMostly cloudy.5 mph72%29.92 "HgN/A
2:00 AM59 °FPassing clouds.5 mph72%29.95 "HgN/A
1:30 AM59 °FClear.1 mph72%29.95 "Hg10 mi
1:00 AM59 °FClear.2 mph77%29.95 "Hg10 mi
12:30 AM59 °FClear.3 mph77%29.95 "Hg10 mi
12:00 AM61 °FLight rain. Clear.3 mph63%29.95 "HgN/A
11:30 PM
Tue, Jul 28
61 °FLight rain. Clear.7 mph63%29.95 "HgN/A
11:00 PM61 °FLight rain. Clear.8 mph68%29.95 "HgN/A
10:30 PM61 °FLight rain. Clear.9 mph68%29.95 "HgN/A
10:00 PM66 °FLight rain. Clear.15 mph46%29.92 "HgN/A
9:30 PM66 °FLight rain. Clear.5 mph56%29.89 "HgN/A
9:00 PM66 °FLight rain. Clear.5 mph56%29.89 "HgN/A
8:30 PM66 °FSunny.5 mph52%29.89 "Hg10 mi
8:00 PM68 °FSunny.5 mph46%29.86 "Hg10 mi
7:30 PM70 °FPassing clouds.8 mph40%29.86 "HgN/A
7:00 PM70 °FPassing clouds.10 mph40%29.86 "HgN/A
6:30 PM72 °FPassing clouds.9 mph41%29.86 "HgN/A
6:00 PM72 °FPassing clouds.13 mph41%29.86 "HgN/A
Weather by CustomWeather, © 2015

See weather overviewHow to use our weather pages